Wind_Speed
26 26 25 23 22 21 20 18 17 16 16 16 15 14 13 11 9 8 6 5 6 6 6 5 5 6 7 8 8 9 11 11 11 11 10 9 10 11 11 11 10 10 10 10 10 10 9 10 11 13 15 15 15 16 15 14 13 12 11 10 9 9 9 8 9 10 9 9 8 9 10 11 11 11 11 11 10 9 10 11 10 9 8 9 8
27 25 24 22 20 20 19 18 17 16 16 16 16 15 13 12 10 8 7 6 6 6 5 6 6 6 8 8 8 9 10 11 11 10 10 10 10 11 12 11 9 9 10 10 10 11 11 10 11 13 15 14 15 15 14 13 13 11 11 11 10 10 9 7 8 9 9 9 8 9 10 11 12 12 13 13 12 10 10 12 11 9 9 10 10
27 24 22 20 19 19 19 18 17 16 15 16 17 16 14 12 10 9 7 6 6 7 6 5 6 8 9 9 9 9 9 10 10 9 9 11 11 12 13 11 10 11 11 10 9 10 11 11 11 12 14 15 15 15 14 13 11 11 11 10 10 9 8 7 7 7 8 9 8 9 11 11 10 12 13 13 13 12 12 13 12 10 11 12 11
27 23 21 21 20 20 19 19 18 16 15 16 16 16 14 12 11 9 8 6 6 7 6 6 7 8 9 8 8 8 8 9 11 10 10 10 10 12 13 12 11 10 10 9 9 8 9 10 10 11 13 15 15 15 14 13 12 11 11 10 9 9 9 8 7 7 7 9 9 9 10 11 10 11 13 13 13 13 13 13 13 12 13 12 11
27 24 22 22 21 21 19 18 17 17 17 17 16 15 14 13 11 9 7 7 7 6 6 7 7 8 8 7 7 7 6 7 9 10 11 12 11 10 11 11 10 9 9 9 9 8 8 9 10 10 11 13 15 15 16 15 13 11 11 10 9 9 9 8 8 8 8 9 10 10 10 11 10 11 12 13 13 14 14 14 14 14 14 13 13
27 25 24 23 21 20 19 17 17 18 17 16 15 14 14 13 11 9 8 8 7 6 6 7 8 8 8 8 7 7 7 7 7 8 9 11 12 12 11 11 10 9 10 9 9 9 8 9 10 10 10 11 12 14 16 16 14 12 11 10 9 9 9 9 9 9 10 10 10 11 11 12 12 12 13 13 13 14 14 15 15 15 15 15 15
27 25 24 22 21 21 19 17 18 19 17 16 16 15 14 13 10 9 9 8 7 7 7 7 8 8 8 8 8 7 7 7 7 8 8 9 11 13 14 13 11 11 11 10 10 11 9 10 12 12 11 11 11 12 15 15 15 13 11 10 9 8 8 8 9 10 10 11 11 12 12 12 13 13 13 14 14 14 14 15 16 16 17 18 18
26 25 24 23 23 23 20 18 19 19 18 18 18 17 16 14 11 10 10 9 8 7 7 8 8 9 9 8 7 7 7 6 7 8 7 7 9 11 13 13 11 12 12 11 12 12 11 11 12 12 12 12 12 13 14 14 13 12 10 10 9 9 8 8 8 9 10 11 11 12 12 12 13 13 13 13 15 16 15 15 16 15 16 18 18
25 24 24 24 24 23 20 19 20 20 19 20 20 19 17 14 12 11 10 10 10 9 8 8 8 8 8 8 7 9 10 10 10 11 9 7 7 9 12 12 10 10 10 10 11 11 11 12 13 13 13 12 13 13 13 13 12 10 9 9 10 9 9 8 9 9 9 10 11 12 12 12 13 13 14 14 15 15 15 16 17 16 16 17 17
24 24 24 23 23 23 22 21 21 21 20 21 21 19 16 13 12 12 12 11 11 11 9 8 7 7 7 8 10 11 11 10 10 11 12 10 8 8 9 10 9 8 8 8 9 9 10 11 14 16 15 14 14 14 13 13 13 11 10 10 10 9 9 9 10 10 10 11 11 11 12 13 13 13 14 16 15 15 15 16 17 17 17 17 16
24 24 25 23 23 24 24 23 22 22 22 22 20 16 13 11 11 13 14 13 13 12 10 8 8 7 7 8 10 10 10 9 9 9 10 10 10 9 8 9 9 8 7 7 7 7 8 8 11 14 14 14 14 14 14 14 13 12 12 11 11 11 10 10 11 11 11 12 12 12 13 14 14 14 15 16 16 17 17 17 18 19 19 19 18
23 23 24 24 25 25 24 23 23 23 23 21 18 15 14 13 13 15 16 15 14 13 12 10 10 9 8 8 8 8 8 8 8 8 8 8 8 7 7 8 9 8 7 7 6 7 7 7 9 11 12 12 12 13 13 13 13 13 12 12 12 12 12 12 12 12 12 13 13 14 15 15 15 15 15 15 16 18 18 19 20 20 21 22 21
24 24 24 24 24 23 20 21 23 25 24 21 18 16 16 17 17 17 17 17 16 14 13 11 10 10 10 9 8 8 8 8 7 8 8 8 8 7 5 6 7 7 8 8 8 8 8 7 8 10 12 13 12 12 12 13 14 15 15 14 15 14 15 15 15 14 14 13 14 15 15 15 16 16 16 16 16 18 19 20 21 21 23 24 23
24 24 24 23 20 17 18 20 21 22 22 20 17 17 18 19 19 18 18 18 17 16 14 12 10 10 10 9 9 9 9 8 8 7 7 7 7 6 6 6 7 7 8 9 10 10 10 9 8 8 10 12 12 13 13 13 15 17 18 18 18 18 19 19 18 17 17 17 17 17 16 16 16 18 19 19 18 18 18 19 20 20 22 25 26
23 23 23 22 19 18 20 21 20 20 20 18 16 17 18 19 19 18 18 18 17 16 15 13 11 10 11 11 10 10 10 9 8 8 7 6 6 6 6 7 8 9 10 10 11 11 12 12 11 10 11 13 14 15 15 15 16 18 19 20 20 21 22 23 22 21 20 20 21 20 19 18 18 18 19 20 19 19 19 19 19 20 23 27 29
22 21 20 20 20 20 20 20 20 21 20 18 17 17 17 17 18 17 16 16 16 16 15 13 12 11 11 11 11 11 11 10 10 9 8 8 7 7 8 8 9 10 11 11 11 12 13 13 13 13 14 16 18 18 17 18 18 19 20 21 22 23 23 24 24 23 22 23 23 23 22 22 22 21 21 22 21 21 22 23 23 25 26 27 27
22 22 20 19 19 19 18 18 20 20 19 18 18 17 17 16 16 15 14 14 14 15 14 13 12 12 11 12 12 12 11 11 11 10 10 10 10 10 10 11 11 12 13 13 13 15 16 15 15 16 17 19 20 20 19 20 20 21 22 24 24 24 24 25 26 25 25 26 27 27 27 27 26 26 26 26 25 23 24 25 25 25 25 25 24
22 22 22 22 21 19 18 18 18 18 17 17 17 16 16 16 15 15 14 13 13 13 13 13 13 13 13 13 13 12 12 11 11 11 11 11 11 12 12 13 14 14 15 16 16 18 19 19 19 20 21 23 23 23 23 24 23 24 25 24 25 25 24 24 27 29 29 30 30 31 32 31 31 31 31 30 28 27 28 27 24 22 22 23 23
22 20 20 20 20 19 18 17 16 14 13 13 14 14 15 14 13 13 12 12 11 12 12 13 13 14 15 15 14 15 14 13 12 11 11 11 12 12 13 14 15 15 16 17 17 18 21 22 21 21 22 23 23 24 24 24 24 25 25 25 26 26 24 22 23 25 27 29 31 32 33 34 34 34 34 33 33 32 31 31 26 23 22 22 21
20 19 17 16 16 16 16 15 14 13 12 10 10 11 11 10 9 10 11 12 11 11 11 11 12 14 13 12 12 14 15 14 12 11 11 11 11 13 14 15 16 17 17 18 18 19 21 22 23 23 22 22 24 24 25 25 26 26 26 26 27 26 26 25 24 24 24 26 29 31 32 33 34 35 36 36 36 35 35 33 30 28 26 23 21
17 16 16 15 13 13 12 11 11 11 10 8 7 9 8 7 7 8 11 12 11 10 9 10 12 13 13 12 12 13 14 14 12 11 12 13 14 16 17 19 19 20 20 20 20 21 21 21 24 27 26 25 26 26 27 28 29 29 29 29 29 28 29 30 29 29 28 28 28 30 31 30 31 33 37 38 37 36 35 34 32 30 28 25 24
14 14 14 13 12 12 11 10 9 8 7 6 5 6 7 6 5 6 8 8 8 7 7 8 9 10 11 12 14 14 15 16 15 15 16 17 18 19 20 22 22 22 22 23 23 24 24 25 28 30 30 29 29 29 30 30 31 32 31 31 31 31 31 32 32 31 31 30 27 27 28 28 27 27 30 35 38 37 35 33 31 31 30 30 29
14 13 13 13 12 12 11 10 9 8 8 7 6 6 6 6 5 5 5 5 5 5 6 7 8 8 9 10 12 14 15 16 17 17 18 19 20 20 21 23 23 23 24 25 25 26 27 28 30 31 32 32 32 32 32 31 32 32 32 31 31 31 32 34 34 34 35 33 30 25 24 25 27 25 24 28 33 35 33 31 30 31 31 31 30
14 14 13 13 13 12 10 9 8 7 7 6 5 4 4 4 4 4 4 4 5 6 6 7 7 7 8 9 11 12 13 15 16 16 17 19 20 20 21 23 23 24 24 24 25 26 27 28 29 30 31 32 33 33 33 32 32 32 31 31 32 32 32 33 34 34 35 35 34 30 25 24 27 28 26 25 26 30 32 29 28 30 30 30 30
13 13 12 12 12 11 10 9 8 7 6 5 4 2 2 2 2 3 4 5 5 6 7 7 8 8 9 10 11 11 11 12 14 14 15 16 17 18 19 20 21 22 22 23 23 24 26 27 28 28 30 31 32 33 33 33 34 33 32 31 31 32 33 33 33 33 33 34 35 32 29 27 28 30 29 27 28 31 32 28 26 28 30 31 31
13 13 13 12 12 11 10 9 8 7 6 4 3 2 1 0 1 2 3 5 5 6 6 7 7 8 8 9 9 10 10 10 11 12 12 13 14 15 16 17 19 20 20 20 23 24 25 26 26 27 29 29 30 31 31 32 33 34 33 33 33 33 33 32 32 32 31 31 31 30 29 28 28 30 32 33 34 34 33 30 28 30 31 32 31
12 12 12 11 11 10 9 8 8 7 7 5 4 4 2 2 1 1 2 3 3 4 5 5 5 5 6 6 6 6 6 7 8 10 11 12 12 13 14 15 17 17 16 18 21 24 25 26 26 26 27 28 28 29 29 30 30 29 29 28 28 28 27 27 28 29 28 26 26 26 26 25 27 31 34 35 35 35 34 32 31 30 32 33 33
10 11 11 10 9 9 8 7 7 6 5 4 3 3 2 2 1 1 1 2 2 3 2 3 4 4 4 4 4 3 3 4 7 9 10 11 12 12 13 14 15 16 17 19 22 24 24 24 24 24 25 25 24 24 23 23 24 25 24 22 20 21 22 23 25 27 28 27 26 26 25 24 25 31 34 34 33 34 35 35 34 33 34 35 34
9 9 10 9 9 9 8 8 7 6 5 4 3 2 1 0 0 1 2 2 3 3 3 3 3 4 3 3 3 2 2 4 7 9 10 11 12 12 12 13 14 15 16 18 20 21 21 21 21 20 20 19 18 16 16 16 17 18 19 18 17 18 20 21 22 22 23 26 27 26 24 23 25 30 32 33 33 34 34 34 34 34 35 36 34
8 9 9 9 9 8 8 8 7 6 5 4 4 3 2 1 1 1 2 3 2 2 2 2 2 2 2 1 2 2 2 4 5 7 8 9 10 10 11 12 13 14 15 16 17 18 18 18 18 17 16 15 13 13 13 14 14 15 15 16 16 17 17 18 20 19 20 23 27 27 25 26 29 32 33 32 33 34 33 33 33 31 32 31 27
7 7 7 7 7 7 6 7 7 6 5 4 3 2 2 5 6 5 3 3 3 3 3 3 3 3 3 3 3 3 4 5 6 7 7 7 7 8 9 11 12 13 15 15 15 15 16 16 15 14 13 13 13 13 13 14 14 15 15 16 16 16 17 17 18 18 17 19 24 26 27 28 30 32 33 33 34 34 33 34 34 30 27 24 20
4 5 5 6 7 7 6 6 7 6 5 4 3 3 2 3 7 8 7 7 6 5 5 5 5 4 4 3 4 5 6 7 7 8 8 8 8 8 10 11 11 12 13 14 14 14 14 13 12 12 12 13 13 13 13 14 14 14 15 16 16 16 17 17 18 18 16 17 21 25 28 29 28 29 31 31 31 31 32 33 31 26 23 20 15
2 2 3 5 6 6 5 5 6 5 5 4 3 3 2 2 2 5 8 9 8 7 6 5 4 4 4 4 5 6 8 8 8 8 8 8 8 8 9 10 10 11 12 13 13 12 12 11 11 12 12 12 12 13 13 13 14 14 14 15 16 17 17 17 18 18 16 17 20 23 26 28 26 25 26 27 28 29 30 31 30 27 26 23 18
1 1 1 2 3 3 3 4 4 4 4 4 3 3 3 2 2 1 3 6 8 8 8 6 4 3 4 6 6 7 8 8 8 8 8 8 9 8 8 9 9 10 11 12 11 10 10 10 11 11 12 12 12 14 14 13 13 14 13 14 15 16 17 17 17 16 15 15 17 20 23 25 23 22 24 26 27 28 29 31 31 29 27 23 17
1 1 2 3 3 2 2 3 3 3 3 3 3 3 3 3 3 3 2 2 2 4 6 8 7 5 5 6 7 8 8 8 8 8 8 9 10 10 9 8 8 10 10 10 9 9 9 10 11 11 11 12 12 13 14 14 15 15 14 14 15 15 15 15 14 14 15 15 16 19 21 20 19 20 23 26 28 28 29 30 29 26 23 19 17
1 2 4 4 3 2 2 2 2 2 2 2 2 2 3 3 2 2 2 2 2 2 2 4 6 7 7 6 7 8 9 9 9 9 9 10 10 9 8 7 7 8 9 9 9 9 9 10 11 11 11 12 12 12 14 16 17 18 18 17 15 14 14 14 14 14 16 17 17 17 16 15 18 21 23 26 28 28 28 28 25 22 19 17 15
1 2 3 4 3 3 2 1 2 3 3 2 2 2 2 3 3 3 2 3 3 2 1 2 3 4 5 5 6 7 8 9 10 9 9 10 9 8 7 8 8 9 9 9 9 10 10 10 10 11 11 13 13 14 16 17 18 18 19 18 15 15 16 17 18 18 17 16 15 12 11 13 18 22 24 26 27 27 26 23 20 17 15 13 11
2 2 3 3 2 2 3 3 4 5 4 2 1 1 2 3 3 4 3 3 3 3 2 2 3 4 4 6 7 7 6 7 8 7 7 7 7 6 7 7 8 8 9 9 11 13 13 12 12 11 12 13 14 14 17 18 17 16 16 14 14 16 18 18 18 16 13 10 9 8 10 13 18 22 24 26 26 24 21 18 15 13 11 9 8
3 5 6 5 4 2 1 2 2 3 2 1 1 1 2 3 4 4 3 3 3 3 3 3 4 5 7 9 9 8 6 6 6 6 4 4 5 5 5 5 6 7 9 10 12 14 15 13 12 10 10 11 13 13 15 15 14 14 14 12 12 14 15 14 12 11 9 6 6 8 12 17 20 20 20 20 19 17 15 13 11 9 7 6 6
3 5 6 6 4 2 2 1 1 1 1 2 1 1 1 3 4 4 3 2 2 3 3 3 3 5 8 10 10 10 8 6 6 6 4 4 4 4 4 4 5 7 9 10 11 14 15 14 11 9 8 9 10 10 10 10 10 10 10 9 9 10 10 9 8 9 7 2 5 10 13 15 15 15 14 13 13 12 11 10 9 8 7 7 6
4 4 5 6 4 2 2 2 2 2 2 1 1 1 1 2 4 3 2 1 2 2 3 3 3 5 8 10 11 11 9 6 6 6 6 5 5 5 5 5 6 7 9 10 11 14 15 13 10 9 8 7 7 7 7 6 5 6 6 7 8 9 9 9 9 9 9 9 9 9 9 10 11 11 12 12 12 10 9 7 6 6 7 6 5
4 3 5 5 4 2 2 3 3 2 2 2 2 2 1 2 3 2 1 1 2 2 3 3 3 5 8 9 10 9 7 6 6 6 6 6 6 5 5 5 6 7 9 10 12 14 14 12 12 12 10 8 8 7 7 7 8 8 8 8 8 8 9 9 9 10 10 10 10 9 9 9 10 10 11 10 9 7 7 6 5 5 6 5 4
3 3 3 4 3 2 2 2 3 3 3 3 4 2 1 1 1 1 1 2 2 3 3 3 4 4 6 8 9 8 7 7 8 8 8 6 5 4 5 5 6 7 8 9 11 12 11 11 13 13 12 12 12 11 11 11 11 10 9 8 9 9 10 10 11 11 11 11 11 12 12 12 11 10 10 8 7 6 7 6 6 5 5 4 4
4 3 3 4 3 3 2 2 3 4 3 4 5 3 1 0 0 1 2 2 3 3 3 3 3 4 5 7 9 10 10 10 9 8 7 6 6 6 7 7 8 8 9 10 11 12 11 11 12 13 14 15 15 14 12 11 10 9 9 9 10 10 11 12 12 11 11 11 12 11 11 10 9 8 7 7 7 7 7 6 5 5 5 4 4
4 4 3 4 3 3 2 3 3 2 1 3 4 2 0 0 1 2 2 2 2 3 3 3 3 4 5 6 8 10 10 10 9 8 8 9 9 9 9 10 10 10 11 12 13 14 14 12 12 12 13 13 12 11 11 10 10 11 12 12 12 12 12 11 11 11 11 11 11 10 8 7 6 6 6 6 6 6 5 5 5 5 5 4 4
5 4 3 3 4 2 1 1 2 1 1 2 3 2 0 1 1 2 2 2 2 3 3 3 3 4 4 5 7 9 10 9 9 10 10 11 11 11 11 12 12 12 12 13 13 13 13 13 12 11 10 9 8 9 11 12 13 13 13 12 12 11 10 9 9 10 11 11 9 7 6 6 5 5 6 6 5 5 5 5 4 4 4 4 4
6 5 3 3 3 2 0 1 2 2 2 2 2 2 1 1 2 2 2 2 3 4 4 3 3 4 4 5 6 8 9 10 10 11 11 10 10 10 11 11 11 11 11 11 11 11 11 10 10 9 9 8 8 9 11 12 12 12 11 9 8 8 7 7 9 10 11 10 8 6 5 5 5 5 6 6 4 4 5 5 5 4 4 3 3
6 5 4 3 3 1 0 1 2 2 2 1 2 2 1 1 2 3 3 3 3 4 4 3 3 4 4 5 5 6 7 8 9 9 9 9 9 9 9 8 8 8 8 8 8 8 8 8 8 8 8 8 8 8 8 9 8 8 7 6 5 5 6 7 9 10 10 9 7 5 5 5 4 4 5 5 5 5 5 5 5 5 5 4 4
7 6 5 4 3 2 1 1 1 1 1 2 2 2 2 2 3 4 4 3 3 3 3 3 3 3 3 4 4 5 5 5 5 5 5 5 5 5 6 6 6 7 6 6 6 7 6 6 6 6 6 6 6 6 5 5 4 4 3 3 4 5 6 7 8 8 8 7 7 5 5 5 5 5 5 5 6 6 6 5 5 5 5 5 4
7 7 6 5 3 2 1 2 2 2 2 2 2 1 2 3 4 4 4 4 3 3 3 3 3 3 3 3 3 3 3 3 3 3 3 3 2 2 2 3 4 5 5 5 5 6 6 6 5 5 4 4 4 4 4 4 4 3 3 4 5 5 6 6 6 6 6 6 6 5 5 5 5 5 5 5 5 5 5 4 4 4 5 5 4
8 7 7 6 5 3 2 2 3 3 3 2 2 2 2 3 5 5 4 4 4 3 3 3 3 2 2 2 2 2 2 2 2 2 2 2 0 1 1 1 2 2 3 4 4 5 6 7 7 6 5 5 4 5 5 5 5 5 5 5 5 6 6 7 7 7 8 7 6 5 5 5 4 4 4 4 4 4 4 3 3 3 3 3 3
Wind_Direction
179 181 180 179 181 180 180 178 175 176 175 171 170 168 166 165 165 166 160 162 172 172 176 183 184 187 187 190 198 202 205 206 204 201 194 191 193 195 194 190 191 194 188 185 182 174 176 177 176 179 177 174 170 166 165 164 159 159 160 155 150 154 162 162 155 157 169 179 176 181 195 195 195 204 204 209 221 214 202 213 229 238 238 240 250
183 183 181 181 183 186 186 182 178 179 177 173 172 170 167 168 169 168 168 173 169 164 182 193 181 178 182 184 190 191 194 200 200 194 187 185 186 184 182 179 179 180 173 170 167 161 162 169 174 175 175 175 172 168 168 166 162 163 164 163 162 162 168 168 160 163 177 186 183 185 200 202 199 207 210 214 227 228 213 216 230 237 229 231 250
184 182 182 184 186 187 187 183 180 181 179 176 174 170 169 170 169 167 173 179 168 167 183 185 173 175 180 180 179 178 180 182 179 172 166 168 170 167 164 163 165 163 157 154 154 150 150 158 166 169 170 173 173 172 172 170 168 170 171 172 174 174 180 182 176 177 184 193 195 193 205 211 206 208 214 218 227 227 218 220 229 234 230 229 240
184 182 183 186 186 185 183 181 180 180 179 177 174 171 169 168 168 168 172 178 174 176 176 169 170 177 177 173 167 165 169 167 162 157 155 155 157 159 158 155 156 154 150 153 153 145 140 141 147 159 168 172 174 176 177 174 172 175 177 178 182 186 192 196 198 198 196 201 205 205 212 219 215 212 214 220 226 225 220 223 229 230 234 238 238
183 183 185 186 185 184 181 180 180 178 176 175 173 172 170 168 171 170 171 175 174 173 169 164 169 172 169 170 169 168 169 166 165 167 165 159 155 157 157 154 152 153 155 157 154 151 151 147 142 146 160 173 181 184 182 178 178 180 183 184 187 194 204 210 214 217 217 213 213 215 216 218 221 219 217 219 223 226 226 227 231 232 234 239 238
184 184 186 186 184 182 182 183 181 175 171 170 171 172 171 171 170 166 166 171 169 164 164 165 169 171 170 170 175 179 174 167 168 172 170 166 164 165 164 161 159 159 160 160 159 159 159 162 160 154 156 168 181 188 188 187 187 186 189 193 195 202 214 222 225 228 230 228 224 220 217 219 224 222 221 222 222 227 230 231 234 235 235 236 235
185 185 185 186 185 184 185 187 180 172 169 169 170 170 171 170 164 160 163 165 160 156 161 166 166 168 172 171 174 180 176 172 172 170 170 171 172 175 175 173 172 173 174 175 177 174 168 171 172 169 170 171 173 181 187 191 195 194 194 199 204 213 222 228 232 233 234 235 232 226 223 225 227 226 226 227 226 229 232 234 238 236 237 240 238
185 186 186 188 189 185 183 185 179 173 172 171 170 170 169 166 162 160 160 156 149 145 149 157 158 163 171 171 172 177 172 175 177 171 174 180 181 184 184 181 183 187 188 190 192 189 182 177 173 172 179 179 173 174 178 185 193 196 201 207 211 219 225 228 233 233 232 234 232 231 232 231 229 230 230 228 227 233 234 235 242 243 243 246 242
187 188 190 193 194 188 183 182 180 178 177 172 170 169 167 165 164 161 158 157 155 147 143 149 153 159 166 168 180 188 184 186 185 177 176 180 185 192 190 186 187 190 191 195 197 193 185 182 178 177 183 184 181 181 182 187 193 196 209 218 216 220 225 227 229 228 229 231 230 232 235 233 232 231 232 231 232 239 243 241 244 249 251 250 242
188 190 192 194 194 188 183 183 183 180 178 172 169 168 165 164 166 166 165 164 162 155 148 148 150 153 163 176 189 192 188 188 188 184 179 175 176 186 189 189 188 186 186 188 189 183 178 183 185 185 188 190 192 195 198 204 208 205 209 215 217 224 230 233 233 231 230 231 231 232 233 234 237 237 239 242 244 248 249 243 245 251 255 254 243
187 189 191 190 187 183 182 184 184 181 178 175 174 174 175 178 182 181 179 174 168 164 161 162 163 165 174 182 182 181 182 183 185 187 184 178 175 174 176 182 183 183 183 183 186 185 180 187 193 195 199 202 205 209 211 214 217 216 217 222 225 230 233 236 240 239 239 239 238 239 239 242 245 247 248 250 251 253 251 250 254 258 259 256 250
186 188 187 186 184 183 184 186 185 182 181 181 183 186 188 192 198 197 192 186 180 177 176 179 184 189 193 191 186 185 188 190 191 191 189 189 185 174 173 182 180 180 183 180 183 188 186 193 202 204 208 210 213 219 220 221 224 226 231 234 235 237 237 237 240 240 244 248 248 247 247 249 253 255 255 257 256 257 257 257 260 260 261 261 258
183 184 183 182 181 181 186 189 185 184 186 188 192 197 196 195 199 200 197 195 192 189 188 189 193 199 203 203 202 201 199 198 199 195 192 195 190 177 181 191 185 186 194 192 192 194 194 203 214 220 222 221 224 230 234 237 238 237 240 241 241 242 241 242 242 240 241 245 248 250 250 252 255 255 255 257 259 260 261 261 262 261 262 263 262
179 179 178 179 182 189 197 195 187 190 197 198 197 200 198 195 195 197 198 199 199 198 197 197 199 202 206 209 211 213 213 212 210 206 202 200 196 191 199 205 204 209 212 212 215 217 218 220 225 233 239 239 241 244 245 250 251 249 249 249 248 247 245 244 245 243 242 242 245 248 249 252 255 255 254 256 259 263 264 263 264 263 262 266 267
175 177 177 179 186 194 195 191 187 193 201 200 196 198 197 196 197 198 199 200 203 205 204 204 206 207 208 210 212 214 219 221 222 224 225 225 224 224 227 229 231 233 232 232 235 236 237 238 238 243 250 252 252 250 250 253 255 257 258 257 256 255 252 249 247 247 248 247 247 249 250 251 253 255 257 261 266 268 268 266 267 268 269 271 272
169 173 176 178 183 184 180 179 182 186 187 185 185 189 192 195 196 196 198 200 202 205 205 206 211 215 216 217 217 217 220 224 227 231 237 243 246 246 246 248 249 249 248 248 250 250 248 247 248 249 253 255 254 253 253 255 257 260 262 262 262 262 260 258 254 252 254 255 254 253 254 254 255 256 260 266 270 272 272 272 272 274 275 273 270
153 158 160 161 167 169 168 171 173 175 177 177 178 179 181 185 188 190 194 195 196 198 199 203 210 217 224 227 226 224 223 224 228 233 239 245 249 252 254 255 256 258 259 260 261 260 258 256 258 258 258 258 259 259 260 261 262 263 264 265 265 265 265 265 263 260 259 260 261 260 259 259 260 261 263 266 267 268 268 270 271 272 272 267 264
128 135 138 141 147 150 153 157 157 160 165 168 170 172 172 174 177 181 184 187 193 195 195 201 209 217 224 229 232 234 232 229 229 233 239 245 251 254 257 259 261 262 264 264 264 265 265 263 263 263 263 264 266 266 266 266 266 267 267 267 267 266 266 268 270 270 268 265 264 264 263 263 262 262 263 264 265 265 264 264 264 263 261 260 261
113 115 120 127 134 138 142 147 149 153 158 162 167 170 172 174 175 179 185 190 197 204 204 206 211 215 217 220 225 231 234 232 231 236 243 249 255 259 260 263 265 265 266 268 267 269 270 269 266 265 265 267 269 269 270 270 269 269 270 270 270 271 270 268 270 273 274 272 271 269 267 267 266 265 265 264 263 264 263 262 261 257 256 257 258
111 113 116 122 130 136 143 148 152 154 154 158 162 161 171 186 188 196 211 214 215 222 225 225 229 228 224 222 228 233 235 234 234 241 252 259 264 269 270 270 272 271 270 271 271 272 274 274 272 270 269 270 272 273 274 274 273 272 271 270 270 271 271 269 266 265 267 271 274 274 272 270 269 267 267 267 265 264 263 263 262 258 255 255 251
109 113 117 120 124 129 135 141 147 150 148 153 154 145 151 169 176 192 210 214 217 226 228 229 237 241 239 238 241 242 241 243 248 254 262 267 270 272 273 273 275 274 272 272 271 270 271 270 271 274 276 275 274 274 275 275 274 273 271 270 269 267 266 266 265 262 262 265 268 270 270 270 269 267 266 266 265 264 262 262 262 258 252 249 248
103 109 114 117 118 119 121 125 131 136 139 150 158 146 147 165 179 192 203 206 212 221 223 227 237 245 249 249 249 249 250 257 267 272 274 273 272 274 275 275 276 276 275 276 274 273 273 271 273 278 281 279 277 276 275 275 274 273 272 270 269 266 264 264 262 260 261 262 263 265 264 262 262 263 263 263 262 263 261 259 258 256 250 248 248
94 99 103 107 108 109 110 111 115 118 121 129 136 137 147 168 187 203 216 224 233 239 238 238 242 248 256 259 261 264 267 272 277 280 280 279 278 277 277 277 278 279 279 279 278 277 277 276 278 282 284 283 283 282 281 280 278 277 276 275 273 271 268 266 265 264 263 262 262 261 259 259 259 258 257 258 259 261 261 256 253 251 248 249 250
87 88 91 93 94 96 98 100 102 105 110 118 127 137 151 168 183 198 213 225 239 251 256 258 261 263 268 270 270 272 276 279 281 282 282 283 284 283 282 283 284 284 285 285 285 284 283 283 285 287 288 287 287 287 287 286 284 283 282 281 280 278 276 273 272 270 268 266 264 261 258 259 258 255 254 251 250 256 263 262 254 250 247 246 246
85 82 82 81 80 79 80 81 84 86 91 99 105 118 148 184 214 223 232 236 242 251 257 261 265 268 272 277 280 283 284 283 284 286 285 283 284 284 285 287 287 288 289 289 288 286 286 288 290 290 290 290 291 291 291 290 289 287 285 283 281 280 279 279 278 276 273 271 268 263 259 258 256 255 255 248 242 253 266 266 255 249 246 243 241
81 78 74 71 67 64 60 59 60 58 58 62 61 62 82 130 237 244 252 255 253 256 259 262 266 269 273 277 280 284 287 289 293 295 291 288 287 287 287 288 287 288 290 288 286 285 286 289 290 289 290 290 290 289 289 288 288 288 287 286 283 281 280 280 280 279 277 273 269 264 260 258 257 256 254 246 244 256 267 265 256 252 247 242 239
79 76 74 69 64 60 54 48 45 38 33 32 26 17 15 10 337 276 264 264 264 268 272 276 280 283 287 289 287 288 298 301 296 292 290 290 289 287 287 287 287 289 290 286 285 287 288 289 289 289 289 289 289 289 288 287 287 286 287 287 286 284 282 279 277 277 275 271 267 263 259 258 258 256 253 248 250 259 265 261 254 251 246 240 235
84 79 76 71 66 61 54 49 46 37 25 19 13 6 0 358 352 312 269 262 274 285 288 284 284 285 289 294 294 304 328 313 296 293 293 291 288 286 286 287 287 287 287 284 285 288 291 292 292 293 293 295 296 296 295 294 292 290 287 285 282 280 279 278 278 276 274 270 267 263 260 259 257 255 253 252 256 263 265 259 254 248 241 234 228
76 72 68 63 61 58 52 48 47 42 34 22 6 348 342 14 322 284 280 277 284 292 290 287 292 292 290 295 304 313 319 305 302 304 301 295 292 293 293 293 294 294 293 293 294 296 297 297 298 299 300 301 302 302 300 299 297 294 291 287 282 280 278 277 276 277 276 274 271 267 261 256 253 254 255 255 259 263 259 250 245 239 233 227 221
54 55 52 49 50 51 46 44 46 48 50 44 23 0 347 4 1 303 298 306 304 292 280 280 303 313 307 328 2 0 340 330 326 321 314 305 301 302 303 306 309 310 310 311 311 310 309 308 309 310 310 310 309 306 305 303 301 300 298 293 290 286 281 276 275 276 276 276 275 271 265 256 253 255 258 255 254 255 247 234 226 222 218 214 209
39 39 38 34 42 47 39 34 40 42 46 59 60 42 354 343 343 351 2 2 3 17 28 42 57 60 52 45 45 35 15 4 356 348 339 325 310 303 303 308 315 319 322 325 327 326 322 319 317 314 312 309 305 304 305 304 302 301 300 298 295 290 286 283 282 281 278 276 275 274 272 266 258 257 259 258 255 253 245 232 223 215 208 204 203
36 33 20 8 19 34 32 24 29 31 26 35 54 68 55 348 335 340 359 18 27 32 36 41 47 53 57 51 37 28 22 12 4 1 356 341 323 307 301 305 314 321 324 326 328 328 324 317 312 308 305 303 303 303 302 300 300 301 301 299 297 293 290 287 284 281 277 274 274 274 275 273 265 258 259 260 256 250 240 228 219 211 201 196 195
29 21 11 359 2 15 22 16 17 21 20 26 37 44 61 81 346 333 346 3 16 23 26 26 23 20 21 19 15 14 12 6 3 4 360 353 343 323 307 304 308 313 319 321 321 321 317 310 306 304 303 302 301 300 298 297 297 297 297 297 297 296 293 289 285 282 279 277 275 274 274 274 269 260 258 256 249 240 231 221 213 206 196 190 189
346 327 38 46 13 4 10 9 7 10 14 26 46 46 45 67 89 50 355 357 3 4 359 354 355 5 5 356 353 356 355 352 355 356 354 356 356 346 336 331 325 325 330 332 328 324 321 316 313 311 308 306 304 303 301 298 296 296 296 297 298 297 294 290 286 283 281 279 276 275 274 272 267 258 252 243 234 226 220 214 209 203 197 195 201
273 313 15 43 42 6 352 0 8 13 20 30 45 56 61 64 66 71 69 46 20 5 354 347 340 339 346 345 341 340 340 340 341 343 343 346 349 352 0 4 351 340 343 343 336 331 330 326 322 318 313 310 308 306 302 297 297 302 303 300 299 299 298 295 290 286 283 281 277 275 274 269 260 250 241 231 223 217 210 205 202 198 197 200 203
262 296 346 6 16 0 356 7 6 10 38 64 62 61 67 67 60 54 51 55 60 47 13 353 336 328 333 341 335 329 327 326 325 325 328 332 338 347 1 7 354 346 348 347 338 334 334 330 324 320 315 312 309 306 303 302 304 307 306 303 303 303 297 293 293 292 292 291 287 282 275 261 245 234 224 216 210 204 197 193 192 194 196 196 194
293 301 327 338 345 352 351 350 2 18 37 54 57 57 52 41 38 36 24 29 44 35 0 2 356 336 332 337 329 318 316 314 312 311 315 321 330 346 357 357 353 353 353 350 345 344 342 334 325 322 321 320 319 315 311 310 310 308 307 306 304 298 294 297 301 302 301 299 295 287 268 242 225 216 207 199 194 190 188 187 188 189 189 186 186
294 307 318 334 359 357 331 324 354 18 29 27 19 46 43 21 19 22 8 5 26 35 6 2 12 0 349 348 341 330 327 329 326 319 313 316 329 348 356 355 356 358 357 357 358 356 350 338 329 326 323 321 319 315 312 312 311 309 309 308 304 301 306 314 317 316 312 303 285 261 233 208 197 194 191 187 183 183 184 184 181 181 181 181 182
292 308 323 349 13 9 301 299 334 3 7 338 327 16 24 7 5 11 8 358 7 26 25 15 9 4 3 3 360 357 0 2 353 340 322 317 335 351 353 352 357 360 2 4 4 360 354 345 336 332 327 320 316 312 311 311 309 306 305 305 307 314 323 331 337 343 341 315 254 209 189 178 172 172 176 176 174 174 173 170 168 167 164 157 155
271 291 316 345 355 326 299 307 280 269 296 313 322 328 351 4 4 3 5 10 20 25 28 27 17 7 8 11 10 10 13 12 4 4 10 5 358 357 353 349 356 2 6 9 7 3 360 355 346 338 332 325 322 324 322 317 310 308 312 320 330 341 353 9 26 37 42 74 162 159 154 152 151 151 153 153 151 151 151 151 150 145 138 135 142
239 264 299 331 344 325 295 292 266 244 251 266 275 288 318 357 8 10 13 30 46 41 36 37 27 11 10 12 12 12 17 20 11 13 23 20 12 11 5 355 356 3 8 11 9 3 2 6 10 3 350 344 347 349 344 338 338 349 7 23 28 30 42 56 65 76 95 115 128 133 133 133 135 136 134 130 127 126 126 126 125 124 126 133 145
227 257 292 318 334 331 295 287 289 300 303 274 254 245 258 331 356 17 53 80 73 63 53 47 33 14 12 12 7 4 11 23 20 22 32 36 34 28 12 358 0 9 12 12 7 1 5 21 32 30 24 27 35 36 35 40 47 52 57 64 68 72 81 89 92 96 101 101 100 103 107 109 114 118 116 112 110 109 108 106 107 112 119 129 142
231 253 280 303 311 302 287 290 295 295 277 243 225 217 212 326 350 29 88 100 86 71 57 50 41 24 17 16 14 15 28 43 47 48 51 50 42 28 11 7 13 21 22 18 10 7 19 37 41 42 49 57 60 65 69 68 67 70 76 86 96 102 105 107 107 105 101 96 91 92 94 95 97 101 101 99 97 97 97 96 99 102 106 114 124
231 249 279 307 312 303 306 310 292 278 252 208 193 187 179 342 41 91 106 107 95 79 62 50 48 43 33 29 33 42 54 61 61 58 52 41 35 33 34 37 40 41 42 37 28 28 37 44 43 49 60 65 64 67 74 79 85 93 98 104 109 110 109 109 108 103 100 96 93 92 94 95 93 92 91 89 87 86 86 88 92 97 103 108 110
227 243 271 300 302 294 304 308 292 279 209 167 174 178 171 129 125 109 109 108 89 75 70 63 61 61 56 52 58 67 73 73 70 66 58 53 53 55 58 60 61 60 58 52 44 41 43 45 47 55 64 65 63 66 75 86 96 103 105 106 107 106 105 105 104 102 100 98 94 92 91 89 84 84 87 86 83 81 83 90 96 96 100 104 107
229 241 264 296 296 282 284 293 271 249 171 178 191 198 164 123 124 113 119 118 98 85 86 82 76 73 71 73 81 87 89 85 80 76 72 69 67 67 65 63 62 62 60 56 52 50 48 48 51 57 63 66 71 81 90 96 99 100 101 101 101 99 100 103 107 110 109 103 95 90 86 81 81 88 89 84 78 79 82 88 95 98 103 105 103
234 239 249 280 291 292 307 210 221 208 193 198 199 188 160 138 135 132 131 123 106 98 95 89 83 83 82 85 94 100 99 94 88 82 79 76 72 67 63 60 58 59 60 60 61 62 61 61 64 67 73 80 90 98 103 105 105 103 102 100 95 92 95 104 114 118 115 107 97 88 84 81 79 80 79 74 71 75 80 86 90 91 94 104 104
237 238 242 264 288 309 307 219 223 202 182 189 192 176 160 155 149 146 142 126 110 105 103 98 91 89 88 89 96 103 104 102 97 91 84 78 72 64 57 53 53 54 56 59 64 68 72 76 78 82 87 94 103 109 111 112 110 107 102 94 82 78 89 102 111 117 117 110 98 85 81 83 84 85 86 83 78 79 85 94 95 88 83 91 102
233 233 235 246 270 289 223 201 219 218 199 200 198 173 162 166 164 157 149 137 125 118 115 109 101 96 93 91 92 95 97 98 99 94 85 77 70 61 51 47 49 51 52 54 58 64 69 74 80 90 97 102 107 110 112 114 115 109 97 82 77 84 95 103 106 110 115 111 98 88 86 86 83 84 87 87 83 82 86 90 87 82 80 82 87
223 228 232 233 249 284 272 189 201 217 214 209 211 199 183 182 178 167 157 150 145 137 131 126 118 103 93 88 86 88 84 77 74 70 64 65 71 61 39 39 45 51 55 58 59 63 67 70 74 83 93 101 106 107 105 103 102 95 89 90 93 96 100 101 103 112 120 114 99 94 101 101 92 87 86 84 79 77 80 82 79 71 69 74 79
220 227 229 222 228 258 267 203 204 217 216 210 218 220 198 181 177 174 167 161 159 157 151 144 134 118 99 84 75 79 77 68 61 56 47 40 330 283 306 351 13 26 47 62 65 66 68 68 67 71 79 87 96 100 100 99 96 92 92 95 98 102 104 103 106 115 117 106 92 93 103 103 96 93 94 90 74 54 48 60 71 65 56 61 68
Height
1515 1518 1520 1523 1525 1528 1530 1532 1534 1536 1537 1539 1540 1542 1543 1545 1546 1547 1548 1549 1549 1550 1551 1552 1553 1553 1553 1554 1554 1554 1554 1554 1555 1555 1555 1556 1556 1557 1557 1558 1559 1560 1561 1561 1562 1563 1564 1565 1566 1567 1568 1568 1570 1571 1573 1574 1576 1578 1580 1581 1582 1583 1584 1585 1585 1587 1589 1589 1590 1591 1591 1591 1592 1592 1592 1592 1592 1592 1593 1593 1593 1593 1593 1593 1593
1514 1517 1520 1522 1525 1527 1530 1532 1534 1536 1537 1538 1540 1541 1543 1544 1545 1546 1547 1548 1549 1550 1551 1551 1552 1553 1554 1554 1554 1554 1554 1554 1555 1555 1555 1556 1556 1557 1557 1558 1559 1560 1561 1561 1562 1563 1564 1565 1566 1566 1567 1568 1570 1572 1573 1575 1576 1578 1579 1581 1582 1583 1584 1584 1585 1587 1588 1589 1590 1591 1591 1591 1592 1592 1592 1592 1591 1591 1592 1593 1593 1592 1593 1593 1593
1513 1516 1519 1522 1524 1526 1529 1531 1533 1535 1537 1538 1539 1540 1542 1543 1545 1546 1547 1548 1548 1550 1550 1551 1552 1553 1553 1554 1554 1554 1554 1554 1555 1556 1556 1556 1557 1557 1558 1559 1560 1560 1561 1562 1563 1564 1564 1565 1566 1566 1567 1568 1570 1572 1574 1575 1577 1578 1579 1580 1581 1582 1583 1584 1585 1586 1587 1588 1589 1590 1590 1590 1591 1592 1592 1591 1591 1591 1592 1593 1593 1593 1593 1593 1593
1512 1516 1519 1521 1523 1526 1528 1530 1532 1534 1536 1538 1539 1540 1541 1543 1544 1545 1546 1547 1548 1549 1550 1551 1552 1553 1553 1554 1555 1555 1555 1555 1555 1556 1557 1558 1558 1559 1559 1559 1560 1561 1563 1564 1564 1565 1565 1566 1566 1567 1568 1569 1571 1572 1574 1575 1577 1578 1579 1580 1581 1582 1583 1584 1585 1585 1586 1587 1588 1589 1590 1589 1590 1591 1592 1591 1591 1591 1592 1593 1593 1593 1592 1592 1593
1511 1514 1518 1520 1523 1526 1528 1530 1532 1533 1535 1537 1538 1540 1541 1542 1543 1544 1546 1547 1547 1548 1549 1551 1552 1553 1554 1555 1556 1556 1557 1557 1557 1557 1557 1558 1559 1560 1560 1561 1561 1562 1563 1564 1565 1565 1566 1566 1567 1567 1568 1569 1571 1572 1573 1574 1576 1578 1579 1579 1581 1581 1582 1583 1584 1585 1585 1586 1587 1588 1589 1589 1589 1590 1591 1591 1591 1590 1591 1592 1592 1592 1592 1592 1591
1509 1513 1516 1520 1523 1525 1528 1529 1531 1533 1534 1536 1538 1539 1540 1541 1543 1544 1545 1546 1547 1548 1549 1550 1552 1553 1554 1555 1557 1557 1558 1558 1558 1558 1558 1558 1559 1560 1560 1561 1562 1562 1563 1564 1564 1565 1566 1567 1567 1567 1568 1569 1570 1571 1572 1574 1575 1577 1578 1579 1580 1581 1581 1582 1583 1584 1584 1585 1586 1586 1587 1588 1588 1589 1589 1589 1590 1590 1590 1590 1590 1590 1590 1590 1589
1508 1511 1515 1519 1522 1525 1527 1529 1530 1532 1534 1536 1537 1539 1540 1541 1542 1544 1545 1546 1546 1547 1549 1550 1551 1553 1554 1555 1556 1557 1557 1558 1558 1559 1559 1559 1559 1559 1560 1561 1561 1562 1563 1563 1564 1565 1566 1566 1567 1567 1568 1569 1570 1571 1572 1573 1574 1576 1577 1578 1579 1580 1580 1581 1582 1582 1583 1583 1584 1585 1585 1586 1587 1587 1587 1588 1588 1588 1588 1589 1588 1588 1588 1587 1587
1507 1510 1514 1517 1520 1523 1526 1529 1530 1532 1533 1535 1536 1538 1539 1541 1542 1543 1545 1546 1547 1547 1548 1549 1551 1552 1553 1554 1555 1556 1556 1557 1558 1558 1559 1560 1560 1559 1560 1561 1561 1562 1562 1563 1563 1564 1565 1566 1566 1567 1568 1569 1569 1570 1571 1572 1573 1575 1576 1577 1578 1578 1579 1580 1580 1581 1581 1582 1583 1583 1584 1585 1585 1585 1586 1586 1586 1586 1587 1587 1586 1586 1586 1585 1584
1505 1509 1512 1515 1518 1522 1526 1529 1530 1531 1533 1534 1535 1537 1538 1540 1542 1543 1545 1546 1547 1547 1548 1549 1550 1551 1552 1553 1554 1554 1555 1556 1556 1557 1558 1559 1560 1560 1560 1561 1562 1562 1563 1563 1563 1564 1565 1565 1566 1566 1567 1568 1569 1570 1571 1572 1573 1574 1575 1576 1576 1577 1578 1579 1579 1579 1580 1580 1581 1581 1582 1583 1583 1584 1584 1584 1584 1584 1584 1584 1584 1584 1584 1583 1582
1504 1507 1510 1514 1517 1521 1525 1527 1529 1531 1532 1533 1535 1536 1538 1539 1541 1544 1545 1546 1546 1547 1548 1549 1550 1551 1552 1552 1552 1553 1554 1555 1555 1556 1557 1558 1559 1560 1560 1561 1562 1562 1563 1563 1563 1563 1564 1565 1565 1566 1567 1567 1568 1569 1570 1571 1571 1573 1574 1574 1575 1576 1576 1577 1578 1578 1578 1578 1579 1579 1580 1580 1581 1581 1582 1582 1582 1582 1582 1582 1582 1581 1581 1581 1580
1502 1505 1509 1513 1516 1519 1523 1526 1528 1529 1531 1533 1535 1536 1537 1539 1541 1543 1545 1546 1546 1547 1548 1549 1550 1551 1551 1551 1552 1553 1554 1554 1555 1556 1556 1557 1558 1559 1559 1560 1561 1562 1563 1563 1563 1564 1564 1565 1565 1565 1566 1567 1567 1568 1568 1569 1570 1571 1571 1572 1573 1573 1574 1575 1576 1576 1577 1577 1577 1577 1578 1578 1579 1579 1579 1579 1580 1580 1580 1580 1579 1579 1579 1579 1578
1502 1505 1508 1511 1515 1518 1521 1524 1526 1528 1531 1532 1534 1536 1537 1538 1540 1542 1544 1545 1546 1546 1547 1548 1549 1550 1550 1551 1552 1553 1554 1555 1555 1556 1557 1557 1558 1558 1559 1560 1560 1561 1562 1563 1563 1564 1564 1564 1564 1565 1565 1566 1566 1567 1567 1568 1568 1569 1569 1570 1570 1571 1572 1572 1573 1574 1575 1575 1575 1575 1575 1576 1576 1577 1577 1577 1577 1577 1577 1577 1577 1577 1576 1576 1576
1502 1505 1507 1511 1513 1516 1520 1523 1525 1528 1530 1532 1533 1535 1536 1537 1539 1541 1543 1545 1545 1546 1547 1548 1548 1549 1550 1551 1552 1553 1554 1555 1555 1556 1557 1557 1558 1559 1560 1560 1560 1561 1561 1561 1562 1563 1563 1563 1564 1564 1564 1564 1565 1565 1566 1566 1566 1567 1567 1568 1568 1569 1569 1570 1570 1571 1571 1572 1572 1573 1573 1573 1573 1574 1574 1574 1574 1574 1574 1574 1573 1574 1573 1572 1572
1502 1504 1507 1510 1513 1515 1519 1523 1526 1528 1530 1531 1533 1534 1535 1536 1538 1540 1541 1543 1544 1545 1546 1547 1548 1548 1549 1550 1551 1552 1553 1554 1555 1556 1557 1557 1558 1558 1559 1559 1560 1560 1560 1560 1561 1561 1562 1562 1563 1563 1563 1564 1564 1564 1565 1565 1565 1565 1566 1566 1566 1566 1567 1567 1567 1568 1568 1568 1569 1569 1570 1570 1570 1570 1570 1570 1570 1570 1571 1570 1570 1570 1569 1568 1568
1502 1505 1508 1510 1512 1516 1520 1522 1525 1527 1529 1531 1532 1534 1535 1536 1537 1538 1540 1541 1543 1544 1545 1546 1547 1548 1549 1550 1550 1551 1553 1554 1555 1556 1556 1557 1558 1558 1558 1559 1559 1559 1560 1560 1561 1561 1561 1562 1562 1563 1563 1563 1562 1563 1563 1564 1564 1564 1564 1564 1564 1564 1564 1564 1565 1565 1565 1565 1565 1566 1566 1567 1567 1567 1566 1566 1567 1567 1567 1567 1567 1566 1566 1564 1563
1503 1505 1508 1511 1513 1517 1520 1521 1524 1526 1528 1530 1531 1533 1534 1535 1536 1537 1538 1540 1542 1544 1544 1545 1546 1547 1548 1549 1550 1551 1552 1553 1554 1555 1555 1556 1557 1558 1558 1558 1559 1559 1559 1560 1560 1560 1560 1561 1561 1561 1561 1560 1560 1561 1562 1562 1562 1562 1562 1562 1562 1562 1562 1562 1562 1563 1563 1563 1563 1563 1563 1563 1563 1563 1563 1563 1563 1563 1563 1563 1563 1562 1562 1561 1560
1504 1506 1509 1512 1515 1518 1520 1521 1524 1526 1527 1529 1531 1532 1533 1534 1535 1536 1538 1539 1541 1543 1544 1544 1545 1547 1548 1548 1549 1550 1551 1552 1553 1553 1554 1555 1556 1557 1557 1557 1558 1558 1558 1559 1559 1559 1559 1559 1560 1560 1559 1558 1558 1559 1559 1559 1560 1560 1559 1559 1559 1558 1558 1558 1559 1559 1560 1560 1560 1560 1559 1559 1560 1560 1559 1559 1560 1560 1559 1558 1558 1558 1558 1557 1556
1508 1509 1510 1514 1516 1519 1521 1523 1525 1527 1528 1529 1531 1532 1533 1534 1535 1536 1537 1539 1541 1542 1543 1543 1544 1545 1546 1547 1548 1549 1550 1551 1551 1552 1553 1553 1554 1555 1555 1556 1556 1556 1557 1557 1557 1557 1556 1557 1558 1557 1557 1556 1556 1556 1556 1556 1557 1556 1556 1555 1555 1554 1554 1554 1554 1555 1555 1556 1556 1556 1555 1555 1556 1555 1555 1555 1555 1555 1555 1554 1555 1555 1554 1553 1553
1512 1514 1515 1517 1518 1520 1522 1525 1527 1528 1530 1530 1531 1532 1533 1534 1534 1536 1537 1539 1541 1542 1542 1542 1543 1543 1544 1545 1547 1548 1548 1549 1550 1550 1551 1551 1552 1552 1553 1554 1554 1554 1555 1555 1555 1555 1554 1554 1554 1555 1554 1554 1553 1553 1553 1553 1553 1553 1552 1552 1551 1551 1551 1551 1550 1550 1550 1550 1550 1550 1550 1550 1551 1550 1550 1550 1550 1550 1550 1550 1551 1551 1550 1549 1549
1515 1517 1518 1520 1521 1523 1524 1526 1528 1529 1530 1530 1531 1532 1533 1534 1535 1536 1537 1539 1540 1541 1541 1542 1542 1543 1544 1545 1545 1546 1546 1547 1547 1548 1548 1549 1549 1550 1551 1551 1551 1552 1552 1552 1553 1552 1552 1551 1550 1551 1551 1551 1550 1550 1550 1550 1549 1549 1549 1548 1548 1548 1547 1547 1547 1547 1546 1546 1545 1545 1545 1545 1545 1545 1545 1545 1545 1545 1545 1545 1546 1546 1545 1546 1546
1518 1519 1520 1522 1523 1525 1525 1527 1528 1528 1529 1530 1531 1532 1533 1534 1535 1535 1537 1538 1539 1540 1540 1541 1541 1542 1543 1544 1544 1545 1545 1545 1545 1545 1546 1546 1547 1547 1548 1548 1549 1549 1550 1550 1550 1549 1549 1548 1546 1546 1547 1547 1547 1547 1546 1546 1545 1545 1545 1544 1544 1544 1543 1542 1542 1542 1542 1542 1541 1541 1541 1540 1540 1540 1540 1540 1540 1540 1540 1540 1540 1541 1541 1542 1541
1521 1522 1522 1524 1525 1525 1526 1527 1527 1528 1529 1529 1531 1532 1533 1534 1534 1535 1536 1537 1538 1538 1539 1540 1540 1540 1541 1542 1542 1543 1543 1543 1542 1543 1543 1544 1544 1544 1545 1545 1545 1546 1546 1546 1546 1545 1545 1544 1542 1541 1542 1542 1542 1542 1542 1541 1540 1540 1540 1540 1539 1539 1538 1537 1537 1537 1537 1537 1537 1537 1537 1536 1536 1536 1535 1535 1534 1535 1535 1536 1536 1536 1536 1536 1536
1523 1523 1524 1525 1525 1526 1526 1527 1528 1529 1529 1530 1531 1532 1533 1534 1535 1535 1536 1536 1537 1537 1537 1538 1539 1539 1539 1540 1540 1540 1540 1540 1540 1540 1541 1541 1541 1541 1541 1541 1541 1542 1542 1541 1541 1540 1540 1539 1537 1537 1537 1536 1536 1536 1536 1535 1535 1534 1534 1534 1534 1534 1533 1532 1531 1531 1531 1532 1532 1532 1532 1532 1532 1532 1531 1530 1529 1529 1530 1531 1531 1531 1531 1531 1531
1525 1525 1525 1526 1526 1527 1527 1528 1529 1530 1530 1531 1531 1532 1533 1534 1535 1535 1536 1536 1536 1536 1536 1536 1537 1537 1538 1538 1538 1538 1538 1538 1538 1538 1538 1538 1537 1537 1537 1537 1537 1537 1536 1536 1536 1535 1534 1533 1533 1532 1532 1531 1530 1530 1529 1529 1529 1529 1529 1528 1527 1527 1527 1526 1526 1526 1525 1525 1525 1525 1526 1527 1527 1527 1527 1527 1526 1524 1524 1526 1526 1526 1526 1526 1527
1527 1527 1527 1527 1528 1528 1528 1529 1530 1530 1531 1531 1531 1532 1533 1533 1534 1535 1535 1535 1535 1535 1535 1535 1535 1535 1536 1536 1536 1537 1537 1536 1536 1536 1535 1535 1535 1534 1534 1533 1533 1532 1532 1532 1531 1530 1529 1529 1528 1528 1527 1526 1525 1524 1524 1523 1523 1523 1523 1523 1522 1521 1520 1520 1520 1520 1519 1519 1519 1519 1520 1521 1522 1522 1522 1522 1521 1519 1519 1520 1521 1521 1521 1522 1522
1529 1529 1529 1529 1529 1529 1529 1530 1530 1530 1531 1531 1531 1532 1532 1533 1533 1534 1534 1534 1534 1534 1534 1534 1534 1534 1534 1534 1535 1535 1535 1535 1534 1534 1533 1533 1533 1532 1532 1531 1531 1530 1529 1529 1527 1526 1526 1526 1525 1524 1523 1523 1522 1520 1520 1519 1518 1517 1517 1516 1516 1515 1515 1515 1514 1514 1514 1514 1514 1514 1515 1516 1517 1518 1517 1516 1515 1515 1515 1515 1516 1516 1517 1517 1518
1531 1531 1530 1530 1530 1530 1530 1530 1530 1531 1531 1531 1531 1532 1532 1532 1533 1533 1533 1533 1533 1533 1533 1533 1533 1533 1533 1533 1534 1534 1535 1534 1534 1532 1532 1531 1531 1531 1530 1529 1529 1528 1527 1526 1524 1523 1523 1522 1522 1521 1520 1519 1518 1517 1516 1516 1515 1515 1514 1513 1512 1512 1511 1511 1510 1510 1510 1510 1510 1510 1511 1512 1512 1512 1510 1510 1511 1511 1511 1511 1511 1511 1513 1514 1514
1533 1532 1532 1532 1532 1532 1532 1532 1532 1532 1532 1531 1531 1532 1532 1532 1532 1532 1532 1532 1532 1532 1532 1532 1532 1532 1532 1533 1533 1533 1533 1533 1532 1530 1530 1529 1529 1529 1528 1528 1527 1526 1525 1523 1521 1520 1520 1519 1518 1517 1517 1516 1515 1514 1514 1513 1512 1512 1511 1511 1510 1509 1508 1507 1506 1505 1505 1505 1505 1505 1506 1507 1507 1506 1505 1507 1508 1507 1507 1507 1506 1507 1508 1509 1510
1534 1534 1533 1533 1533 1533 1533 1533 1533 1533 1532 1532 1532 1531 1531 1532 1532 1532 1531 1531 1532 1531 1531 1531 1531 1531 1531 1531 1531 1531 1532 1531 1530 1529 1528 1527 1527 1526 1526 1525 1524 1523 1522 1520 1519 1518 1517 1516 1516 1515 1514 1513 1513 1512 1512 1511 1510 1509 1508 1508 1507 1507 1506 1505 1504 1503 1501 1501 1501 1500 1501 1502 1503 1501 1502 1503 1504 1503 1503 1503 1503 1503 1504 1505 1505
1534 1534 1534 1533 1533 1534 1534 1533 1533 1533 1532 1532 1532 1531 1531 1531 1531 1531 1531 1531 1531 1531 1531 1531 1531 1530 1530 1530 1530 1530 1530 1529 1528 1527 1527 1526 1525 1524 1523 1523 1522 1521 1519 1518 1517 1516 1515 1514 1513 1513 1512 1512 1511 1510 1510 1509 1508 1507 1506 1505 1505 1504 1503 1503 1502 1500 1498 1497 1496 1496 1496 1497 1498 1497 1498 1499 1499 1498 1498 1499 1499 1500 1501 1502 1503
1536 1535 1535 1534 1534 1534 1534 1534 1533 1533 1533 1533 1533 1532 1532 1531 1530 1530 1530 1530 1530 1530 1530 1530 1530 1530 1530 1529 1529 1529 1528 1528 1527 1526 1525 1524 1524 1523 1522 1521 1520 1519 1518 1516 1515 1514 1513 1512 1512 1512 1511 1510 1510 1509 1508 1507 1506 1505 1505 1504 1503 1502 1501 1500 1499 1498 1496 1494 1492 1491 1491 1492 1493 1494 1494 1494 1493 1493 1494 1495 1496 1498 1500 1502 1505
1538 1538 1537 1536 1535 1536 1536 1535 1534 1534 1533 1533 1533 1533 1533 1533 1532 1530 1530 1530 1530 1529 1529 1529 1529 1529 1529 1528 1528 1528 1527 1526 1526 1525 1524 1523 1522 1521 1520 1520 1519 1518 1516 1515 1514 1514 1513 1512 1512 1511 1510 1508 1507 1507 1506 1505 1504 1503 1503 1502 1501 1500 1499 1497 1496 1495 1493 1491 1489 1488 1487 1487 1488 1489 1489 1489 1489 1490 1491 1492 1494 1497 1500 1502 1504
1539 1539 1539 1539 1538 1538 1537 1537 1536 1535 1534 1534 1533 1533 1534 1534 1533 1532 1531 1531 1530 1529 1529 1528 1528 1528 1527 1527 1527 1526 1526 1525 1524 1524 1523 1522 1521 1520 1519 1518 1518 1517 1515 1514 1513 1512 1511 1511 1510 1509 1507 1506 1505 1504 1504 1503 1502 1501 1500 1499 1498 1497 1496 1495 1494 1492 1490 1488 1486 1484 1483 1483 1484 1484 1485 1485 1486 1487 1488 1490 1493 1495 1497 1499 1500
1540 1539 1539 1539 1539 1539 1538 1538 1537 1536 1535 1534 1534 1534 1533 1533 1534 1533 1533 1532 1531 1530 1529 1528 1528 1527 1527 1526 1526 1525 1525 1524 1524 1523 1522 1521 1520 1519 1518 1517 1517 1515 1514 1513 1512 1511 1510 1509 1507 1506 1505 1504 1503 1502 1501 1500 1500 1498 1497 1496 1496 1495 1494 1492 1491 1489 1487 1485 1483 1481 1480 1480 1480 1481 1481 1482 1483 1484 1486 1488 1490 1492 1495 1497 1498
1540 1539 1537 1537 1538 1539 1538 1538 1537 1536 1535 1534 1534 1534 1534 1533 1533 1533 1533 1533 1532 1531 1530 1529 1528 1527 1526 1526 1525 1525 1524 1524 1523 1522 1521 1520 1519 1518 1518 1517 1517 1516 1514 1513 1512 1511 1509 1508 1506 1506 1504 1503 1502 1501 1500 1498 1497 1496 1495 1494 1493 1492 1491 1489 1488 1486 1483 1482 1480 1478 1477 1477 1477 1477 1479 1480 1481 1482 1484 1486 1489 1492 1495 1496 1497
1540 1539 1538 1538 1538 1538 1538 1537 1536 1535 1534 1534 1534 1534 1533 1533 1533 1533 1533 1532 1532 1532 1532 1530 1529 1528 1526 1525 1525 1524 1524 1523 1522 1521 1520 1519 1518 1518 1517 1517 1516 1515 1514 1513 1512 1510 1509 1507 1506 1505 1503 1502 1501 1499 1498 1497 1495 1494 1493 1492 1491 1490 1488 1486 1484 1482 1480 1478 1476 1475 1475 1475 1475 1475 1477 1478 1480 1481 1484 1486 1489 1491 1493 1495 1496
1539 1539 1539 1538 1538 1537 1537 1536 1535 1533 1532 1533 1533 1533 1533 1533 1532 1532 1532 1531 1530 1531 1531 1530 1529 1528 1526 1525 1524 1523 1522 1522 1521 1520 1519 1518 1517 1517 1516 1516 1515 1514 1513 1512 1511 1509 1508 1507 1505 1504 1502 1500 1499 1498 1496 1495 1494 1492 1491 1490 1489 1487 1485 1483 1481 1479 1477 1476 1474 1473 1473 1473 1474 1475 1476 1478 1480 1482 1484 1486 1488 1490 1492 1494 1496
1538 1538 1537 1536 1536 1536 1536 1535 1534 1533 1533 1533 1533 1532 1532 1532 1531 1531 1531 1530 1529 1530 1530 1528 1527 1527 1525 1524 1523 1522 1521 1521 1520 1519 1518 1517 1517 1517 1516 1515 1515 1514 1513 1511 1510 1508 1507 1505 1504 1502 1501 1499 1498 1496 1495 1493 1492 1491 1490 1489 1487 1485 1483 1481 1479 1477 1476 1475 1474 1474 1473 1474 1475 1476 1477 1479 1481 1483 1484 1486 1488 1490 1492 1494 1495
1537 1537 1536 1535 1535 1535 1535 1535 1534 1533 1534 1533 1532 1532 1532 1531 1531 1530 1530 1530 1528 1528 1528 1527 1526 1525 1524 1523 1522 1521 1521 1520 1519 1518 1517 1517 1516 1516 1516 1515 1514 1513 1512 1511 1509 1508 1506 1504 1502 1501 1499 1498 1497 1495 1493 1492 1491 1490 1489 1488 1486 1484 1482 1481 1479 1477 1476 1476 1476 1476 1476 1476 1477 1479 1480 1481 1483 1484 1485 1487 1489 1491 1492 1494 1495
1538 1537 1536 1535 1535 1535 1535 1534 1534 1534 1534 1533 1532 1532 1531 1531 1530 1530 1529 1528 1528 1527 1526 1527 1526 1525 1523 1522 1521 1520 1520 1520 1518 1517 1517 1516 1516 1516 1515 1514 1514 1513 1512 1510 1509 1507 1506 1504 1501 1500 1498 1497 1496 1494 1493 1491 1490 1489 1488 1487 1486 1484 1483 1482 1480 1479 1478 1479 1480 1480 1480 1480 1481 1482 1483 1484 1484 1485 1487 1488 1489 1491 1493 1494 1496
1538 1537 1536 1535 1535 1535 1535 1534 1534 1533 1533 1532 1532 1532 1531 1530 1529 1529 1528 1528 1527 1527 1527 1526 1526 1524 1523 1522 1521 1520 1519 1519 1518 1517 1517 1516 1516 1516 1515 1514 1513 1512 1511 1510 1509 1507 1505 1503 1501 1499 1497 1496 1495 1494 1492 1491 1490 1489 1488 1487 1486 1485 1485 1485 1484 1483 1483 1483 1484 1484 1484 1484 1485 1485 1486 1486 1487 1487 1488 1489 1491 1492 1493 1495 1497
1537 1537 1536 1535 1535 1535 1535 1534 1533 1532 1532 1532 1531 1531 1530 1530 1529 1528 1528 1527 1527 1527 1526 1526 1525 1524 1523 1522 1521 1520 1519 1519 1518 1518 1517 1517 1516 1516 1515 1514 1513 1512 1511 1510 1508 1507 1505 1503 1501 1499 1497 1496 1495 1493 1493 1492 1491 1490 1489 1489 1488 1487 1487 1487 1487 1487 1487 1487 1487 1487 1487 1488 1488 1489 1489 1489 1489 1490 1491 1491 1493 1494 1495 1496 1497
1535 1536 1536 1535 1534 1534 1533 1533 1533 1532 1531 1531 1530 1530 1530 1529 1529 1528 1527 1526 1526 1526 1526 1526 1525 1524 1523 1522 1521 1520 1519 1519 1519 1518 1518 1517 1516 1516 1515 1514 1513 1512 1511 1510 1508 1507 1505 1504 1502 1500 1498 1497 1496 1494 1494 1493 1492 1492 1492 1491 1490 1490 1489 1489 1490 1490 1489 1489 1489 1490 1490 1491 1491 1491 1492 1492 1492 1492 1492 1493 1494 1495 1496 1497 1498
1534 1535 1535 1534 1534 1533 1532 1532 1532 1531 1529 1529 1528 1529 1529 1528 1528 1527 1527 1526 1526 1526 1526 1525 1525 1524 1523 1522 1521 1520 1520 1520 1519 1519 1518 1517 1516 1516 1515 1514 1513 1512 1511 1510 1508 1507 1505 1504 1503 1502 1500 1499 1498 1497 1496 1495 1494 1494 1494 1493 1493 1492 1492 1492 1492 1492 1491 1491 1492 1493 1493 1494 1494 1494 1494 1494 1494 1494 1495 1495 1496 1497 1498 1498 1499
1533 1534 1534 1534 1533 1533 1532 1532 1531 1529 1528 1528 1528 1528 1528 1528 1527 1527 1526 1526 1526 1526 1526 1525 1524 1524 1524 1523 1522 1522 1521 1521 1520 1520 1519 1518 1517 1516 1516 1515 1514 1513 1511 1510 1509 1507 1506 1505 1504 1503 1502 1501 1500 1499 1498 1497 1497 1496 1496 1495 1495 1495 1494 1494 1494 1494 1494 1494 1494 1495 1496 1496 1496 1497 1497 1497 1497 1497 1498 1498 1498 1498 1499 1499 1500
1533 1533 1533 1533 1533 1532 1532 1531 1530 1529 1528 1528 1528 1528 1528 1527 1527 1526 1526 1526 1526 1526 1526 1525 1525 1524 1524 1523 1523 1522 1522 1522 1521 1520 1520 1519 1518 1518 1517 1516 1515 1514 1513 1511 1510 1509 1508 1506 1505 1505 1504 1503 1502 1502 1501 1500 1499 1499 1499 1498 1498 1498 1497 1497 1496 1496 1496 1496 1497 1498 1498 1498 1498 1498 1498 1499 1499 1499 1499 1499 1500 1500 1500 1501 1501
1532 1532 1532 1532 1532 1531 1530 1530 1530 1529 1528 1528 1528 1527 1527 1527 1527 1526 1526 1525 1525 1526 1526 1526 1525 1525 1524 1524 1523 1523 1523 1522 1522 1521 1521 1520 1520 1519 1518 1518 1516 1515 1514 1513 1512 1511 1510 1508 1507 1507 1506 1505 1505 1504 1503 1503 1502 1502 1502 1501 1501 1500 1500 1499 1498 1498 1498 1498 1498 1499 1500 1501 1501 1500 1500 1501 1501 1501 1501 1501 1501 1502 1502 1502 1502
1531 1531 1531 1531 1531 1530 1530 1530 1529 1528 1528 1528 1527 1527 1527 1527 1526 1526 1526 1526 1526 1526 1527 1526 1526 1525 1525 1524 1524 1524 1523 1523 1523 1522 1522 1521 1521 1520 1519 1519 1517 1516 1515 1514 1513 1512 1511 1510 1510 1509 1508 1507 1507 1506 1505 1505 1505 1504 1504 1503 1503 1502 1501 1501 1501 1500 1500 1500 1500 1501 1502 1502 1502 1502 1502 1503 1503 1503 1503 1503 1503 1503 1504 1504 1504
1530 1530 1530 1531 1531 1530 1529 1529 1529 1528 1528 1527 1527 1527 1527 1527 1526 1526 1526 1526 1526 1527 1527 1527 1527 1526 1525 1525 1525 1524 1524 1524 1523 1523 1522 1522 1521 1521 1520 1519 1518 1517 1516 1515 1514 1513 1512 1512 1511 1510 1510 1509 1509 1508 1507 1507 1506 1506 1505 1505 1504 1503 1503 1503 1502 1502 1502 1501 1502 1502 1503 1504 1504 1504 1504 1504 1504 1505 1505 1505 1505 1505 1505 1505 1506
1529 1530 1530 1530 1530 1529 1528 1529 1529 1528 1528 1527 1527 1526 1526 1526 1526 1526 1526 1526 1527 1527 1527 1527 1527 1526 1526 1525 1525 1525 1525 1525 1524 1524 1524 1523 1522 1521 1521 1520 1519 1518 1517 1516 1515 1514 1513 1513 1512 1511 1511 1510 1510 1509 1509 1508 1507 1507 1506 1506 1505 1505 1504 1504 1504 1504 1503 1503 1503 1504 1505 1505 1506 1506 1506 1506 1506 1506 1506 1506 1506 1507 1507 1507 1507
1528 1529 1528 1529 1529 1529 1528 1528 1528 1528 1527 1527 1526 1526 1526 1526 1526 1525 1526 1526 1527 1527 1527 1527 1527 1527 1526 1525 1525 1525 1525 1525 1525 1525 1524 1523 1522 1521 1520 1520 1519 1518 1518 1517 1516 1515 1514 1513 1513 1512 1511 1511 1510 1510 1509 1509 1508 1508 1507 1507 1506 1506 1506 1505 1505 1505 1505 1505 1506 1506 1507 1507 1507 1507 1508 1508 1508 1508 1507 1507 1507 1508 1508 1508 1508